Time,TemperatureF,DewpointF,PressureIn,WindDirection,WindDirectionDegrees,WindSpeedMPH,WindSpeedGustMPH,Humidity,HourlyPrecipIn,Conditions,Clouds,dailyrainin,SoftwareType,DateUTC
2013-04-12 00:00:00,36.0,33.1,30.04,NNW,343,0.0,0.0,89,0.00,,,0.00,Wunderground v.1.12,2013-04-12 06:00:00,
2013-04-12 00:10:00,35.7,32.8,30.04,NNW,345,0.0,0.0,89,0.00,,,0.00,Wunderground v.1.12,2013-04-12 06:10:00,
2013-04-12 00:15:00,35.9,33.0,30.04,NNW,344,0.0,0.0,89,0.00,,,0.00,Wunderground v.1.12,2013-04-12 06:15:00,
2013-04-12 00:20:00,35.7,32.8,30.04,NNW,344,0.0,0.0,89,0.00,,,0.00,Wunderground v.1.12,2013-04-12 06:20:00,
2013-04-12 00:25:00,35.2,32.3,30.04,NE,38,0.0,0.0,89,0.00,,,0.00,Wunderground v.1.12,2013-04-12 06:25:00,
2013-04-12 00:30:00,35.3,-99.9,30.04,ENE,72,0.0,0.0,255,0.00,,,0.00,Wunderground v.1.12,2013-04-12 06:30:00,
2013-04-12 00:35:00,34.8,31.9,30.04,NE,47,0.0,0.0,89,0.00,,,0.00,Wunderground v.1.12,2013-04-12 06:35:00,
2013-04-12 00:45:00,34.8,31.9,30.04,ENE,74,0.0,0.0,89,0.00,,,0.00,Wunderground v.1.12,2013-04-12 06:45:00,
2013-04-12 00:50:00,34.5,-99.9,30.04,ENE,74,0.0,0.0,255,0.00,,,0.00,Wunderground v.1.12,2013-04-12 06:50:00,
2013-04-12 00:55:00,34.0,31.1,30.04,NNE,33,0.0,0.0,89,0.00,,,0.00,Wunderground v.1.12,2013-04-12 06:55:00,
2013-04-12 01:00:00,33.7,30.8,30.04,ENE,64,0.0,0.0,89,0.00,,,0.00,Wunderground v.1.12,2013-04-12 07:00:00,
2013-04-12 01:05:00,33.7,30.5,30.04,ENE,64,0.0,0.0,88,0.00,,,0.00,Wunderground v.1.12,2013-04-12 07:05:00,
2013-04-12 01:15:00,33.6,30.7,30.04,ENE,64,0.0,0.0,89,0.00,,,0.00,Wunderground v.1.12,2013-04-12 07:15:00,
2013-04-12 01:20:00,33.7,30.8,30.04,ENE,64,0.0,0.0,89,0.00,,,0.00,Wunderground v.1.12,2013-04-12 07:20:00,
2013-04-12 01:25:00,33.4,30.5,30.04,ENE,64,0.0,0.0,89,0.00,,,0.00,Wunderground v.1.12,2013-04-12 07:25:00,
2013-04-12 01:30:00,33.5,30.3,30.04,ENE,64,0.0,0.0,88,0.00,,,0.00,Wunderground v.1.12,2013-04-12 07:30:00,
2013-04-12 01:35:00,33.1,29.9,30.04,ENE,64,0.0,0.0,88,0.00,,,0.00,Wunderground v.1.12,2013-04-12 07:35:00,
2013-04-12 01:40:00,33.4,30.2,30.04,ENE,64,0.0,0.0,88,0.00,,,0.00,Wunderground v.1.12,2013-04-12 07:40:00,
2013-04-12 01:50:00,32.7,29.5,30.05,ENE,64,0.0,0.0,88,0.00,,,0.00,Wunderground v.1.12,2013-04-12 07:50:00,
2013-04-12 01:54:00,32.9,30.0,30.05,ENE,64,0.0,0.0,89,0.00,,,0.00,Wunderground v.1.12,2013-04-12 07:54:00,
2013-04-12 01:59:00,32.6,29.4,30.05,ENE,64,0.0,0.0,88,0.00,,,0.00,Wunderground v.1.12,2013-04-12 07:59:00,
2013-04-12 02:04:00,33.0,29.8,30.05,ENE,64,0.0,0.0,88,0.00,,,0.00,Wunderground v.1.12,2013-04-12 08:04:00,
2013-04-12 02:09:00,32.8,29.9,30.05,ENE,64,0.0,0.0,89,0.00,,,0.00,Wunderground v.1.12,2013-04-12 08:09:00,
2013-04-12 02:15:00,32.9,30.0,30.05,ENE,64,0.0,0.0,89,0.00,,,0.00,Wunderground v.1.12,2013-04-12 08:15:00,
2013-04-12 02:20:00,32.5,29.6,30.05,ENE,64,0.0,0.0,89,0.00,,,0.00,Wunderground v.1.12,2013-04-12 08:20:00,
2013-04-12 02:25:00,32.5,29.6,30.05,ENE,64,0.0,0.0,89,0.00,,,0.00,Wunderground v.1.12,2013-04-12 08:25:00,
2013-04-12 02:30:00,31.9,29.0,30.05,ENE,64,0.0,0.0,89,0.00,,,0.00,Wunderground v.1.12,2013-04-12 08:30:00,
2013-04-12 02:35:00,32.0,29.4,30.05,ENE,64,0.0,0.0,90,0.00,,,0.00,Wunderground v.1.12,2013-04-12 08:35:00,
2013-04-12 02:40:00,32.4,29.5,30.05,ENE,64,0.0,0.0,89,0.00,,,0.00,Wunderground v.1.12,2013-04-12 08:40:00,
2013-04-12 02:50:00,31.9,29.0,30.05,ENE,64,0.0,0.0,89,0.00,,,0.00,Wunderground v.1.12,2013-04-12 08:50:00,
2013-04-12 02:55:00,32.0,29.1,30.05,ENE,64,0.0,0.0,89,0.00,,,0.00,Wunderground v.1.12,2013-04-12 08:55:00,
2013-04-12 03:00:00,31.9,29.3,30.05,ENE,64,0.0,0.0,90,0.00,,,0.00,Wunderground v.1.12,2013-04-12 09:00:00,
2013-04-12 03:05:00,32.2,29.6,30.05,ENE,64,0.0,0.0,90,0.00,,,0.00,Wunderground v.1.12,2013-04-12 09:05:00,
2013-04-12 03:10:00,31.9,29.0,30.05,NE,56,0.0,0.0,89,0.00,,,0.00,Wunderground v.1.12,2013-04-12 09:10:00,
2013-04-12 03:15:00,32.1,29.2,30.05,NE,56,0.0,0.0,89,0.00,,,0.00,Wunderground v.1.12,2013-04-12 09:15:00,
2013-04-12 03:25:00,31.7,28.8,30.05,NE,47,0.0,0.0,89,0.00,,,0.00,Wunderground v.1.12,2013-04-12 09:25:00,
2013-04-12 03:30:00,31.8,28.9,30.05,NE,47,0.0,0.0,89,0.00,,,0.00,Wunderground v.1.12,2013-04-12 09:30:00,
2013-04-12 03:34:00,31.6,28.7,30.05,NE,47,0.0,0.0,89,0.00,,,0.00,Wunderground v.1.12,2013-04-12 09:34:00,
2013-04-12 03:39:00,31.9,29.0,30.05,NE,47,0.0,0.0,89,0.00,,,0.00,Wunderground v.1.12,2013-04-12 09:39:00,
2013-04-12 03:45:00,31.5,28.6,30.05,NE,47,0.0,0.0,89,0.00,,,0.00,Wunderground v.1.12,2013-04-12 09:45:00,
2013-04-12 03:55:00,31.5,28.9,30.05,NE,47,0.0,0.0,90,0.00,,,0.00,Wunderground v.1.12,2013-04-12 09:55:00,
2013-04-12 04:00:00,31.3,28.7,30.05,NE,47,0.0,0.0,90,0.00,,,0.00,Wunderground v.1.12,2013-04-12 10:00:00,
2013-04-12 04:05:00,31.3,28.4,30.06,NE,47,0.0,0.0,89,0.00,,,0.00,Wunderground v.1.12,2013-04-12 10:05:00,
2013-04-12 04:10:00,31.4,28.8,30.05,NE,47,0.0,0.0,90,0.00,,,0.00,Wunderground v.1.12,2013-04-12 10:10:00,
2013-04-12 04:15:00,31.1,28.5,30.05,NE,47,0.0,0.0,90,0.00,,,0.00,Wunderground v.1.12,2013-04-12 10:15:00,
2013-04-12 04:25:00,30.9,28.3,30.05,NE,47,0.0,0.0,90,0.00,,,0.00,Wunderground v.1.12,2013-04-12 10:25:00,
2013-04-12 04:30:00,30.5,27.6,30.05,NE,47,0.0,0.0,89,0.00,,,0.00,Wunderground v.1.12,2013-04-12 10:30:00,
2013-04-12 04:35:00,30.6,28.0,30.06,NE,47,0.0,0.0,90,0.00,,,0.00,Wunderground v.1.12,2013-04-12 10:35:00,
2013-04-12 04:40:00,30.5,27.9,30.06,NE,54,0.0,0.0,90,0.00,,,0.00,Wunderground v.1.12,2013-04-12 10:40:00,
2013-04-12 04:45:00,30.1,27.5,30.05,NE,51,0.0,0.0,90,0.00,,,0.00,Wunderground v.1.12,2013-04-12 10:45:00,
2013-04-12 04:50:00,29.7,26.9,30.06,NE,47,0.0,0.0,89,0.00,,,0.00,Wunderground v.1.12,2013-04-12 10:50:00,
2013-04-12 05:00:00,29.7,27.1,30.05,ENE,59,0.0,0.0,90,0.00,,,0.00,Wunderground v.1.12,2013-04-12 11:00:00,
2013-04-12 05:05:00,29.2,26.9,30.05,ENE,59,0.0,0.0,91,0.00,,,0.00,Wunderground v.1.12,2013-04-12 11:05:00,
2013-04-12 05:10:00,29.4,27.1,30.05,ENE,59,0.0,0.0,91,0.00,,,0.00,Wunderground v.1.12,2013-04-12 11:10:00,
2013-04-12 05:15:00,29.5,27.2,30.06,ENE,57,0.0,0.0,91,0.00,,,0.00,Wunderground v.1.12,2013-04-12 11:15:00,
2013-04-12 05:20:00,29.2,26.6,30.06,ENE,57,0.0,0.0,90,0.00,,,0.00,Wunderground v.1.12,2013-04-12 11:20:00,
2013-04-12 05:30:00,29.5,26.7,30.05,ENE,57,0.0,0.0,89,0.00,,,0.00,Wunderground v.1.12,2013-04-12 11:30:00,
2013-04-12 05:35:00,29.1,26.5,30.06,ENE,57,0.0,0.0,90,0.00,,,0.00,Wunderground v.1.12,2013-04-12 11:35:00,
2013-04-12 05:40:00,28.9,26.3,30.06,ENE,57,0.0,0.0,90,0.00,,,0.00,Wunderground v.1.12,2013-04-12 11:40:00,
2013-04-12 05:45:00,29.0,26.4,30.06,ENE,57,0.0,0.0,90,0.00,,,0.00,Wunderground v.1.12,2013-04-12 11:45:00,
2013-04-12 05:50:00,28.8,26.2,30.06,ENE,57,0.0,0.0,90,0.00,,,0.00,Wunderground v.1.12,2013-04-12 11:50:00,
2013-04-12 06:00:00,28.9,26.9,30.06,ENE,57,0.0,0.0,92,0.00,,,0.00,Wunderground v.1.12,2013-04-12 12:00:00,
2013-04-12 06:05:00,29.1,26.8,30.06,ENE,57,0.0,0.0,91,0.00,,,0.00,Wunderground v.1.12,2013-04-12 12:05:00,
2013-04-12 06:10:00,28.7,26.1,30.06,ENE,57,0.0,0.0,90,0.00,,,0.00,Wunderground v.1.12,2013-04-12 12:10:00,
2013-04-12 06:15:00,28.6,26.3,30.06,ENE,57,0.0,0.0,91,0.00,,,0.00,Wunderground v.1.12,2013-04-12 12:15:00,
2013-04-12 06:20:00,29.0,26.7,30.06,ENE,57,0.0,0.0,91,0.00,,,0.00,Wunderground v.1.12,2013-04-12 12:20:00,
2013-04-12 06:25:00,28.6,26.0,30.06,ENE,57,0.0,0.0,90,0.00,,,0.00,Wunderground v.1.12,2013-04-12 12:25:00,
2013-04-12 06:30:00,28.8,26.2,30.06,ENE,57,0.0,0.0,90,0.00,,,0.00,Wunderground v.1.12,2013-04-12 12:30:00,
2013-04-12 06:35:00,28.8,26.2,30.06,N/A,-737280,0.0,0.0,90,0.00,,,0.00,Wunderground v.1.12,2013-04-12 12:35:00,
2013-04-12 06:45:00,28.7,26.4,30.06,ENE,57,0.0,0.0,91,0.00,,,0.00,Wunderground v.1.12,2013-04-12 12:45:00,
2013-04-12 06:50:00,28.6,26.0,30.06,ENE,57,0.0,0.0,90,0.00,,,0.00,Wunderground v.1.12,2013-04-12 12:50:00,
2013-04-12 06:55:00,28.4,26.1,30.06,ENE,57,0.0,0.0,91,0.00,,,0.00,Wunderground v.1.12,2013-04-12 12:55:00,
2013-04-12 07:00:00,28.4,26.1,30.06,ENE,57,0.0,0.0,91,0.00,,,0.00,Wunderground v.1.12,2013-04-12 13:00:00,
2013-04-12 07:05:00,28.1,25.5,30.06,ENE,57,0.0,0.0,90,0.00,,,0.00,Wunderground v.1.12,2013-04-12 13:05:00,
2013-04-12 07:10:00,28.5,25.9,30.06,ENE,57,0.0,0.0,90,0.00,,,0.00,Wunderground v.1.12,2013-04-12 13:10:00,
2013-04-12 07:15:00,28.2,25.6,30.07,ENE,57,0.0,0.0,90,0.00,,,0.00,Wunderground v.1.12,2013-04-12 13:15:00,
2013-04-12 07:20:00,28.2,25.6,30.07,ENE,57,0.0,0.0,90,0.00,,,0.00,Wunderground v.1.12,2013-04-12 13:20:00,
2013-04-12 07:25:00,28.3,26.0,30.07,ENE,57,0.0,0.0,91,0.00,,,0.00,Wunderground v.1.12,2013-04-12 13:25:00,
2013-04-12 07:35:00,29.3,27.5,30.07,ENE,57,0.0,0.0,93,0.00,,,0.00,Wunderground v.1.12,2013-04-12 13:35:00,
2013-04-12 07:40:00,29.6,27.8,30.07,ENE,57,0.0,0.0,93,0.00,,,0.00,Wunderground v.1.12,2013-04-12 13:40:00,
2013-04-12 07:45:00,30.0,28.2,30.07,ENE,57,0.0,0.0,93,0.00,,,0.00,Wunderground v.1.12,2013-04-12 13:45:00,
2013-04-12 07:50:00,30.9,29.1,30.07,ENE,57,0.0,0.0,93,0.00,,,0.00,Wunderground v.1.12,2013-04-12 13:50:00,
2013-04-12 07:55:00,31.2,29.7,30.07,ENE,57,0.0,0.0,94,0.00,,,0.00,Wunderground v.1.12,2013-04-12 13:55:00,
2013-04-12 08:00:00,31.6,30.6,30.07,ENE,57,0.0,0.0,96,0.00,,,0.00,Wunderground v.1.12,2013-04-12 14:00:00,
2013-04-12 08:10:00,32.6,32.1,30.07,ENE,57,0.0,0.0,98,0.00,,,0.00,Wunderground v.1.12,2013-04-12 14:10:00,
2013-04-12 08:15:00,33.7,33.2,30.06,ENE,57,0.0,0.0,98,0.00,,,0.00,Wunderground v.1.12,2013-04-12 14:15:00,
2013-04-12 08:20:00,34.4,34.1,30.06,ENE,57,0.0,0.0,99,0.00,,,0.00,Wunderground v.1.12,2013-04-12 14:20:00,
2013-04-12 08:25:00,35.2,34.9,30.06,ENE,57,0.0,0.0,99,0.00,,,0.00,Wunderground v.1.12,2013-04-12 14:25:00,
2013-04-12 08:30:00,36.4,35.9,30.06,ENE,57,0.0,0.0,98,0.00,,,0.00,Wunderground v.1.12,2013-04-12 14:30:00,
2013-04-12 08:40:00,37.5,36.5,30.06,ENE,57,0.0,0.0,96,0.00,,,0.00,Wunderground v.1.12,2013-04-12 14:40:00,
2013-04-12 08:45:00,37.9,36.1,30.06,ENE,57,0.0,0.0,93,0.00,,,0.00,Wunderground v.1.12,2013-04-12 14:45:00,
2013-04-12 08:50:00,38.2,36.4,30.06,ENE,58,0.0,0.0,93,0.00,,,0.00,Wunderground v.1.12,2013-04-12 14:50:00,
2013-04-12 08:55:00,39.0,36.3,30.06,ENE,58,0.0,0.0,90,0.00,,,0.00,Wunderground v.1.12,2013-04-12 14:55:00,
2013-04-12 09:00:00,39.7,36.4,30.06,ENE,71,0.0,0.0,88,0.00,,,0.00,Wunderground v.1.12,2013-04-12 15:00:00,
2013-04-12 09:05:00,40.0,36.7,30.05,SSE,157,0.0,0.0,88,0.00,,,0.00,Wunderground v.1.12,2013-04-12 15:05:00,
2013-04-12 09:15:00,40.9,37.0,30.05,SW,223,0.0,0.0,86,0.00,,,0.00,Wunderground v.1.12,2013-04-12 15:15:00,
2013-04-12 09:20:00,41.3,37.4,30.05,SW,223,0.0,0.0,86,0.00,,,0.00,Wunderground v.1.12,2013-04-12 15:20:00,
2013-04-12 09:25:00,41.8,37.3,30.05,SW,223,0.0,0.0,84,0.00,,,0.00,Wunderground v.1.12,2013-04-12 15:25:00,
2013-04-12 09:30:00,42.0,37.5,30.05,SW,223,0.0,0.0,84,0.00,,,0.00,Wunderground v.1.12,2013-04-12 15:30:00,
2013-04-12 09:35:00,42.2,37.7,30.05,SW,223,0.0,0.0,84,0.00,,,0.00,Wunderground v.1.12,2013-04-12 15:35:00,
2013-04-12 09:45:00,43.4,38.0,30.05,NNW,338,0.0,0.0,81,0.00,,,0.00,Wunderground v.1.12,2013-04-12 15:45:00,
2013-04-12 09:49:00,44.4,38.9,30.04,NNW,334,0.0,0.0,81,0.00,,,0.00,Wunderground v.1.12,2013-04-12 15:49:00,
2013-04-12 09:55:00,45.0,38.9,30.04,NNW,330,0.0,0.0,79,0.00,,,0.00,Wunderground v.1.12,2013-04-12 15:55:00,
2013-04-12 10:00:00,45.4,38.6,30.04,WSW,246,0.0,0.0,77,0.00,,,0.00,Wunderground v.1.12,2013-04-12 16:00:00,
2013-04-12 10:05:00,45.8,38.7,30.04,SW,224,0.0,0.0,76,0.00,,,0.00,Wunderground v.1.12,2013-04-12 16:05:00,
2013-04-12 10:15:00,46.0,39.2,30.03,SSW,192,0.0,0.0,77,0.00,,,0.00,Wunderground v.1.12,2013-04-12 16:15:00,
2013-04-12 10:20:00,46.6,39.4,30.03,South,186,0.0,0.0,76,0.00,,,0.00,Wunderground v.1.12,2013-04-12 16:20:00,
2013-04-12 10:25:00,46.6,39.1,30.02,South,182,0.0,0.0,75,0.00,,,0.00,Wunderground v.1.12,2013-04-12 16:25:00,
2013-04-12 10:30:00,46.8,38.6,30.02,WSW,240,0.0,0.0,73,0.00,,,0.00,Wunderground v.1.12,2013-04-12 16:30:00,
2013-04-12 10:35:00,47.0,38.4,30.02,WSW,241,0.0,0.0,72,0.00,,,0.00,Wunderground v.1.12,2013-04-12 16:35:00,
2013-04-12 10:40:00,47.9,38.6,30.02,SW,234,0.0,0.0,70,0.00,,,0.00,Wunderground v.1.12,2013-04-12 16:40:00,
2013-04-12 10:50:00,48.4,39.1,30.01,South,185,0.0,0.0,70,0.00,,,0.00,Wunderground v.1.12,2013-04-12 16:50:00,
2013-04-12 10:55:00,48.7,39.4,30.01,South,188,0.0,0.0,70,0.00,,,0.00,Wunderground v.1.12,2013-04-12 16:55:00,
2013-04-12 11:00:00,49.0,39.3,30.01,South,183,0.0,0.0,69,0.00,,,0.00,Wunderground v.1.12,2013-04-12 17:00:00,
2013-04-12 11:05:00,49.3,39.2,30.01,SW,217,0.0,0.0,68,0.00,,,0.00,Wunderground v.1.12,2013-04-12 17:05:00,
2013-04-12 11:14:00,47.9,37.5,30.01,SSW,193,0.0,0.0,67,0.00,,,0.00,Wunderground v.1.12,2013-04-12 17:14:00,
2013-04-12 11:20:00,47.3,37.6,30.00,SW,225,0.0,0.0,69,0.00,,,0.00,Wunderground v.1.12,2013-04-12 17:20:00,
2013-04-12 11:25:00,47.0,37.4,30.00,South,175,0.0,0.0,69,0.00,,,0.00,Wunderground v.1.12,2013-04-12 17:25:00,
2013-04-12 11:30:00,47.7,38.0,30.00,SW,220,0.0,0.0,69,0.00,,,0.00,Wunderground v.1.12,2013-04-12 17:30:00,
2013-04-12 11:35:00,48.8,38.3,30.00,SSW,201,0.0,0.0,67,0.00,,,0.00,Wunderground v.1.12,2013-04-12 17:35:00,
2013-04-12 11:40:00,48.5,37.7,30.00,SSW,208,0.0,0.0,66,0.00,,,0.00,Wunderground v.1.12,2013-04-12 17:40:00,
2013-04-12 11:45:00,48.7,38.6,30.00,NNW,342,0.0,0.0,68,0.00,,,0.00,Wunderground v.1.12,2013-04-12 17:45:00,
2013-04-12 12:00:00,48.4,37.9,29.99,South,179,0.0,0.0,67,0.00,,,0.00,Wunderground v.1.12,2013-04-12 18:00:00,
2013-04-12 12:15:00,47.7,38.0,29.98,South,185,0.0,0.0,69,0.00,,,0.00,Wunderground v.1.12,2013-04-12 18:15:00,
2013-04-12 12:20:00,47.8,37.7,29.98,South,185,0.0,0.0,68,0.00,,,0.00,Wunderground v.1.12,2013-04-12 18:20:00,
2013-04-12 13:30:00,48.8,37.6,29.93,SSW,197,0.0,0.0,65,0.00,,,0.00,Wunderground v.1.12,2013-04-12 19:30:00,
2013-04-12 13:35:00,48.8,38.3,29.93,WSW,246,0.0,0.0,67,0.00,,,0.00,Wunderground v.1.12,2013-04-12 19:35:00,
2013-04-12 13:40:00,48.9,38.4,29.92,SSE,161,0.0,0.0,67,0.00,,,0.00,Wunderground v.1.12,2013-04-12 19:40:00,
2013-04-12 13:45:00,48.8,38.3,29.92,NNW,342,3.0,3.0,67,0.00,,,0.00,Wunderground v.1.12,2013-04-12 19:45:00,
2013-04-12 13:50:00,49.3,37.6,29.92,WSW,251,0.0,0.0,64,0.00,,,0.00,Wunderground v.1.12,2013-04-12 19:50:00,
2013-04-12 13:55:00,49.5,37.8,29.91,SW,228,0.0,0.0,64,0.00,,,0.00,Wunderground v.1.12,2013-04-12 19:55:00,
2013-04-12 14:00:00,49.5,37.4,29.91,North,353,0.0,0.0,63,0.00,,,0.00,Wunderground v.1.12,2013-04-12 20:00:00,
2013-04-12 14:05:00,49.7,38.0,29.91,WSW,252,0.0,0.0,64,0.00,,,0.00,Wunderground v.1.12,2013-04-12 20:05:00,
2013-04-12 14:10:00,49.9,37.4,29.90,WSW,247,0.0,0.0,62,0.00,,,0.00,Wunderground v.1.12,2013-04-12 20:10:00,
2013-04-12 14:15:00,49.9,38.2,29.90,SW,236,0.0,0.0,64,0.00,,,0.00,Wunderground v.1.12,2013-04-12 20:15:00,
2013-04-12 14:20:00,49.7,37.6,29.90,SW,225,0.0,0.0,63,0.00,,,0.00,Wunderground v.1.12,2013-04-12 20:20:00,
2013-04-12 14:25:00,49.5,38.2,29.90,SW,226,0.0,0.0,65,0.00,,,0.00,Wunderground v.1.12,2013-04-12 20:25:00,
2013-04-12 14:30:00,49.8,37.7,29.90,North,351,0.0,0.0,63,0.00,,,0.00,Wunderground v.1.12,2013-04-12 20:30:00,
2013-04-12 14:35:00,50.0,37.1,29.89,North,354,0.0,0.0,61,0.00,,,0.00,Wunderground v.1.12,2013-04-12 20:35:00,
2013-04-12 14:45:00,50.2,36.4,29.88,North,350,0.0,0.0,59,0.00,,,0.00,Wunderground v.1.12,2013-04-12 20:45:00,
2013-04-12 14:50:00,49.9,37.0,29.88,North,353,0.0,0.0,61,0.00,,,0.00,Wunderground v.1.12,2013-04-12 20:50:00,
2013-04-12 14:55:00,49.6,36.7,29.88,North,353,0.0,0.0,61,0.00,,,0.00,Wunderground v.1.12,2013-04-12 20:55:00,
2013-04-12 15:00:00,49.3,36.4,29.88,North,352,0.0,0.0,61,0.00,,,0.00,Wunderground v.1.12,2013-04-12 21:00:00,
2013-04-12 15:05:00,49.1,36.6,29.88,North,352,0.0,0.0,62,0.00,,,0.00,Wunderground v.1.12,2013-04-12 21:05:00,
2013-04-12 15:10:00,48.9,36.4,29.88,North,349,0.0,0.0,62,0.00,,,0.00,Wunderground v.1.12,2013-04-12 21:10:00,
2013-04-12 15:15:00,48.9,36.4,29.88,SSW,205,0.0,0.0,62,0.00,,,0.00,Wunderground v.1.12,2013-04-12 21:15:00,
2013-04-12 15:20:00,49.0,36.5,29.87,East,99,0.0,0.0,62,0.00,,,0.00,Wunderground v.1.12,2013-04-12 21:20:00,
2013-04-12 15:25:00,48.9,36.0,29.87,ESE,109,0.0,0.0,61,0.00,,,0.00,Wunderground v.1.12,2013-04-12 21:25:00,
2013-04-12 15:30:00,48.9,36.0,29.86,ESE,107,0.0,0.0,61,0.00,,,0.00,Wunderground v.1.12,2013-04-12 21:30:00,
2013-04-12 15:35:00,48.6,34.9,29.86,ESE,107,0.0,0.0,59,0.00,,,0.00,Wunderground v.1.12,2013-04-12 21:35:00,
2013-04-12 15:45:00,48.3,36.3,29.85,ESE,107,0.0,0.0,63,0.00,,,0.00,Wunderground v.1.12,2013-04-12 21:45:00,
2013-04-12 15:50:00,48.4,36.0,29.85,ESE,112,0.0,0.0,62,0.00,,,0.00,Wunderground v.1.12,2013-04-12 21:50:00,
2013-04-12 15:55:00,48.5,36.1,29.84,ESE,111,0.0,0.0,62,0.00,,,0.00,Wunderground v.1.12,2013-04-12 21:55:00,
2013-04-12 16:00:00,48.5,35.7,29.84,ESE,111,0.0,0.0,61,0.00,,,0.00,Wunderground v.1.12,2013-04-12 22:00:00,
2013-04-12 16:05:00,48.6,35.7,29.84,ESE,111,0.0,0.0,61,0.00,,,0.00,Wunderground v.1.12,2013-04-12 22:05:00,
2013-04-12 16:15:00,48.7,35.4,29.83,ESE,103,0.0,0.0,60,0.00,,,0.00,Wunderground v.1.12,2013-04-12 22:15:00,
2013-04-12 16:20:00,49.0,36.1,29.83,ESE,106,0.0,0.0,61,0.00,,,0.00,Wunderground v.1.12,2013-04-12 22:20:00,
2013-04-12 16:25:00,49.0,36.5,29.82,ESE,107,0.0,0.0,62,0.00,,,0.00,Wunderground v.1.12,2013-04-12 22:25:00,
2013-04-12 16:30:00,49.2,35.9,29.82,North,352,0.0,0.0,60,0.00,,,0.00,Wunderground v.1.12,2013-04-12 22:30:00,
2013-04-12 16:40:00,49.3,36.4,29.81,North,356,0.0,0.0,61,0.00,,,0.00,Wunderground v.1.12,2013-04-12 22:40:00,
2013-04-12 16:45:00,49.2,35.9,29.81,North,353,0.0,0.0,60,0.00,,,0.00,Wunderground v.1.12,2013-04-12 22:45:00,
2013-04-12 16:50:00,49.3,36.0,29.81,North,352,0.0,0.0,60,0.00,,,0.00,Wunderground v.1.12,2013-04-12 22:50:00,
2013-04-12 16:55:00,49.3,36.4,29.80,N/A,-737280,0.0,4.0,61,0.00,,,0.00,Wunderground v.1.12,2013-04-12 22:55:00,
2013-04-12 17:00:00,49.2,36.3,29.80,North,353,0.0,0.0,61,0.00,,,0.00,Wunderground v.1.12,2013-04-12 23:00:00,
2013-04-12 17:05:00,49.4,36.5,29.80,WSW,258,0.0,0.0,61,0.00,,,0.00,Wunderground v.1.12,2013-04-12 23:05:00,
2013-04-12 17:10:00,49.5,36.6,29.80,North,354,0.0,0.0,61,0.00,,,0.00,Wunderground v.1.12,2013-04-12 23:10:00,
2013-04-12 17:15:00,49.5,36.6,29.79,North,352,0.0,0.0,61,0.00,,,0.00,Wunderground v.1.12,2013-04-12 23:15:00,
2013-04-12 17:20:00,49.5,37.0,29.79,North,351,0.0,0.0,62,0.00,,,0.00,Wunderground v.1.12,2013-04-12 23:20:00,
2013-04-12 17:30:00,49.5,36.6,29.78,North,350,0.0,0.0,61,0.00,,,0.00,Wunderground v.1.12,2013-04-12 23:30:00,
2013-04-12 17:35:00,49.6,36.3,29.78,North,351,0.0,0.0,60,0.00,,,0.00,Wunderground v.1.12,2013-04-12 23:35:00,
2013-04-12 17:40:00,49.7,36.4,29.77,North,354,0.0,0.0,60,0.00,,,0.00,Wunderground v.1.12,2013-04-12 23:40:00,
2013-04-12 17:45:00,49.8,36.9,29.77,NNW,348,0.0,0.0,61,0.00,,,0.00,Wunderground v.1.12,2013-04-12 23:45:00,
2013-04-12 17:50:00,49.8,36.5,29.76,North,349,0.0,0.0,60,0.00,,,0.00,Wunderground v.1.12,2013-04-12 23:50:00,
2013-04-12 17:55:00,49.8,36.5,29.76,North,355,0.0,0.0,60,0.00,,,0.00,Wunderground v.1.12,2013-04-12 23:55:00,
2013-04-12 18:05:00,49.7,36.4,29.76,WNW,293,0.0,3.0,60,0.00,,,0.00,Wunderground v.1.12,2013-04-13 00:05:00,
2013-04-12 18:10:00,49.2,36.3,29.75,North,354,0.0,0.0,61,0.00,,,0.00,Wunderground v.1.12,2013-04-13 00:10:00,
2013-04-12 18:15:00,49.1,35.8,29.74,WSW,255,0.0,0.0,60,0.00,,,0.00,Wunderground v.1.12,2013-04-13 00:15:00,
2013-04-12 18:20:00,48.9,36.0,29.74,WSW,255,0.0,0.0,61,0.00,,,0.00,Wunderground v.1.12,2013-04-13 00:20:00,
2013-04-12 18:25:00,48.9,36.0,29.74,WSW,255,0.0,0.0,61,0.00,,,0.00,Wunderground v.1.12,2013-04-13 00:25:00,
2013-04-12 18:30:00,48.7,35.8,29.74,North,354,0.0,0.0,61,0.00,,,0.00,Wunderground v.1.12,2013-04-13 00:30:00,
2013-04-12 18:40:00,48.5,35.2,29.73,North,353,0.0,0.0,60,0.00,,,0.00,Wunderground v.1.12,2013-04-13 00:40:00,
2013-04-12 18:45:00,48.5,35.7,29.73,North,353,0.0,0.0,61,0.00,,,0.00,Wunderground v.1.12,2013-04-13 00:45:00,
2013-04-12 18:50:00,48.3,35.0,29.72,North,350,0.0,0.0,60,0.00,,,0.00,Wunderground v.1.12,2013-04-13 00:50:00,
2013-04-12 18:55:00,48.2,35.8,29.72,North,354,0.0,0.0,62,0.00,,,0.00,Wunderground v.1.12,2013-04-13 00:55:00,
2013-04-12 19:00:00,48.1,35.7,29.72,North,354,0.0,0.0,62,0.00,,,0.00,Wunderground v.1.12,2013-04-13 01:00:00,
2013-04-12 19:05:00,48.0,36.0,29.71,North,353,0.0,0.0,63,0.00,,,0.00,Wunderground v.1.12,2013-04-13 01:05:00,
2013-04-12 19:10:00,47.7,35.7,29.71,North,351,0.0,0.0,63,0.00,,,0.00,Wunderground v.1.12,2013-04-13 01:10:00,
2013-04-12 19:15:00,47.3,36.1,29.70,North,351,0.0,0.0,65,0.00,,,0.00,Wunderground v.1.12,2013-04-13 01:15:00,
2013-04-12 19:20:00,47.1,36.3,29.70,North,351,0.0,0.0,66,0.00,,,0.00,Wunderground v.1.12,2013-04-13 01:20:00,
2013-04-12 19:25:00,47.2,36.0,29.70,North,352,0.0,0.0,65,0.00,,,0.00,Wunderground v.1.12,2013-04-13 01:25:00,
2013-04-12 19:35:00,46.9,36.1,29.69,North,353,0.0,0.0,66,0.00,,,0.00,Wunderground v.1.12,2013-04-13 01:35:00,
2013-04-12 19:45:00,46.4,36.8,29.69,North,353,0.0,0.0,69,0.00,,,0.00,Wunderground v.1.12,2013-04-13 01:45:00,
2013-04-12 19:50:00,46.3,36.7,29.69,North,351,0.0,0.0,69,0.00,,,0.00,Wunderground v.1.12,2013-04-13 01:50:00,
2013-04-12 19:55:00,45.9,37.0,29.70,North,353,0.0,0.0,71,0.00,,,0.00,Wunderground v.1.12,2013-04-13 01:55:00,
2013-04-12 20:00:00,45.8,37.3,29.70,North,355,0.0,0.0,72,0.00,,,0.00,Wunderground v.1.12,2013-04-13 02:00:00,
2013-04-12 20:10:00,44.9,37.8,29.70,North,352,0.0,0.0,76,0.00,,,0.00,Wunderground v.1.12,2013-04-13 02:10:00,
2013-04-12 20:20:00,44.5,38.4,29.70,North,353,0.0,0.0,79,0.00,,,0.00,Wunderground v.1.12,2013-04-13 02:20:00,
2013-04-12 20:25:00,44.1,38.6,29.70,North,351,0.0,0.0,81,0.00,,,0.00,Wunderground v.1.12,2013-04-13 02:25:00,
2013-04-12 20:30:00,44.1,-99.9,29.70,North,353,0.0,0.0,255,0.00,,,0.00,Wunderground v.1.12,2013-04-13 02:30:00,
2013-04-12 20:35:00,43.6,38.5,29.69,North,351,0.0,0.0,82,0.00,,,0.00,Wunderground v.1.12,2013-04-13 02:35:00,
2013-04-12 20:40:00,43.7,38.6,29.69,North,353,0.0,0.0,82,0.00,,,0.00,Wunderground v.1.12,2013-04-13 02:40:00,
2013-04-12 20:50:00,43.5,38.4,29.69,North,352,0.0,0.0,82,0.00,,,0.00,Wunderground v.1.12,2013-04-13 02:50:00,
2013-04-12 20:55:00,43.5,38.4,29.69,North,354,0.0,0.0,82,0.00,,,0.00,Wunderground v.1.12,2013-04-13 02:55:00,
2013-04-12 21:00:00,43.1,38.3,29.69,North,353,0.0,0.0,83,0.00,,,0.00,Wunderground v.1.12,2013-04-13 03:00:00,
2013-04-12 21:05:00,43.4,38.9,29.69,North,353,0.0,0.0,84,0.00,,,0.00,Wunderground v.1.12,2013-04-13 03:05:00,
2013-04-12 21:15:00,42.9,38.4,29.69,NNW,348,0.0,0.0,84,0.00,,,0.00,Wunderground v.1.12,2013-04-13 03:15:00,
2013-04-12 21:25:00,43.0,38.8,29.69,NNW,347,0.0,0.0,85,0.00,,,0.00,Wunderground v.1.12,2013-04-13 03:25:00,
2013-04-12 21:30:00,42.6,38.4,29.69,NNW,347,0.0,0.0,85,0.00,,,0.00,Wunderground v.1.12,2013-04-13 03:30:00,
2013-04-12 21:34:00,42.6,38.7,29.69,NNW,346,0.0,0.0,86,0.00,,,0.00,Wunderground v.1.12,2013-04-13 03:34:00,
2013-04-12 21:40:00,42.7,39.4,29.69,North,350,0.0,0.0,88,0.00,,,0.00,Wunderground v.1.12,2013-04-13 03:40:00,
2013-04-12 21:50:00,42.1,38.8,29.69,NNW,348,0.0,0.0,88,0.00,,,0.00,Wunderground v.1.12,2013-04-13 03:50:00,
2013-04-12 21:55:00,42.3,39.3,29.68,North,349,0.0,0.0,89,0.00,,,0.00,Wunderground v.1.12,2013-04-13 03:55:00,
2013-04-12 22:00:00,42.0,38.7,29.68,North,349,0.0,0.0,88,0.00,,,0.00,Wunderground v.1.12,2013-04-13 04:00:00,
2013-04-12 22:05:00,42.0,39.0,29.68,North,349,0.0,0.0,89,0.00,,,0.00,Wunderground v.1.12,2013-04-13 04:05:00,
2013-04-12 22:10:00,42.2,38.9,29.68,NNW,348,0.0,0.0,88,0.00,,,0.00,Wunderground v.1.12,2013-04-13 04:10:00,
2013-04-12 22:15:00,42.2,38.9,29.68,North,349,0.0,0.0,88,0.00,,,0.00,Wunderground v.1.12,2013-04-13 04:15:00,
2013-04-12 22:25:00,42.0,38.7,29.67,NNW,344,0.0,0.0,88,0.00,,,0.00,Wunderground v.1.12,2013-04-13 04:25:00,
2013-04-12 22:30:00,42.0,38.7,29.67,NNW,345,0.0,0.0,88,0.00,,,0.00,Wunderground v.1.12,2013-04-13 04:30:00,
2013-04-12 22:35:00,41.7,38.7,29.67,NNW,344,0.0,0.0,89,0.00,,,0.00,Wunderground v.1.12,2013-04-13 04:35:00,
2013-04-12 22:40:00,41.9,38.9,29.66,NNW,347,0.0,0.0,89,0.00,,,0.00,Wunderground v.1.12,2013-04-13 04:40:00,
2013-04-12 22:45:00,41.5,38.5,29.66,NNW,348,0.0,0.0,89,0.00,,,0.00,Wunderground v.1.12,2013-04-13 04:45:00,
2013-04-12 22:55:00,41.5,38.5,29.65,North,349,0.0,0.0,89,0.00,,,0.00,Wunderground v.1.12,2013-04-13 04:55:00,
2013-04-12 23:00:00,41.6,38.6,29.65,NNW,347,0.0,0.0,89,0.00,,,0.00,Wunderground v.1.12,2013-04-13 05:00:00,
2013-04-12 23:05:00,41.6,38.6,29.65,N/A,-737280,0.0,0.0,89,0.00,,,0.00,Wunderground v.1.12,2013-04-13 05:05:00,
2013-04-12 23:10:00,41.3,38.3,29.64,NNW,347,0.0,0.0,89,0.00,,,0.00,Wunderground v.1.12,2013-04-13 05:10:00,
2013-04-12 23:15:00,41.3,38.6,29.64,NNW,338,0.0,0.0,90,0.00,,,0.00,Wunderground v.1.12,2013-04-13 05:15:00,
2013-04-12 23:20:00,41.6,38.9,29.64,NNW,333,0.0,0.0,90,0.00,,,0.00,Wunderground v.1.12,2013-04-13 05:20:00,
2013-04-12 23:25:00,41.3,38.6,29.63,NNW,331,0.0,0.0,90,0.00,,,0.00,Wunderground v.1.12,2013-04-13 05:25:00,
2013-04-12 23:30:00,41.3,38.6,29.63,NNW,328,0.0,0.0,90,0.00,,,0.00,Wunderground v.1.12,2013-04-13 05:30:00,
2013-04-12 23:35:00,41.3,38.6,29.63,NW,326,0.0,0.0,90,0.00,,,0.00,Wunderground v.1.12,2013-04-13 05:35:00,
2013-04-12 23:40:00,41.3,38.6,29.62,NNW,329,0.0,0.0,90,0.00,,,0.00,Wunderground v.1.12,2013-04-13 05:40:00,
2013-04-12 23:45:00,41.1,38.4,29.62,NNW,328,0.0,0.0,90,0.00,,,0.00,Wunderground v.1.12,2013-04-13 05:45:00,
2013-04-12 23:50:00,41.3,38.6,29.62,NW,325,0.0,0.0,90,0.00,,,0.00,Wunderground v.1.12,2013-04-13 05:50:00,